Regional Weather Roundup
Issued by NWS Binghamton, NY

Home | Current Version | Previous Version | Text Only | Print | Product List | Glossary On
Versions: 1 2 3 4 5 6 7 8 9 10 11 12 13 14 15 16 17 18 19 20 21 22 23 24 25 26 27 28
000
ASUS41 KBGM 251810
RWRBGM

REGIONAL WEATHER ROUNDUP
NATIONAL WEATHER SERVICE BINGHAMTON NY
200 PM EDT SUN JUN 25 2017

Note: "fair" indicates few or no clouds below 12,000 feet with no
significant weather and/or obstructions to visibility.

* = Station(s) that does not report precipitation, such as rain,
snow, etc, also no thunder or fog.

NYZ009-015>018-022>025-036-037-044>046-055>057-062-251900
...Central New York...

CITY           SKY/WX    TMP DP  RH WIND       PRES   REMARKS
Binghamton     LGT RAIN  70  50  49 W15       29.98F
Cortland       FAIR      72  52  49 W7        29.97F
Dansville      CLOUDY    65  48  54 S7        30.01R
Elmira         NOT AVBL
Seneca Falls   PTCLDY    77  43  29 W14       29.95S
Ithaca         PTSUNNY   73  54  49 NW6       29.97F
Hamilton       MOSUNNY   70  50  49 NW8       29.98S
Hornell        CLOUDY    63  50  63 W12       30.05F
Monticello     MOSUNNY   73  54  49 SW7       30.00F
Norwich        MOSUNNY   70  55  60 N6        29.97F
Oneonta        MOSUNNY   70 N/A N/A NW16G26   29.98F
Penn Yan       PTSUNNY   72  46  39 SW13      29.97S
Rome           CLOUDY    74  52  46 W12       29.94F
Sidney         MOSUNNY   73  46  38 W8G20     29.96F
Syracuse       MOSUNNY   73  53  49 S10G18    29.93F
$$

PAZ038>040-043-044-047-048-072-251900
...Northeast Pennsylvania...

CITY           SKY/WX    TMP DP  RH WIND       PRES   REMARKS
Hazleton         N/A     68  61  77 SW3       30.06S
Scranton       MOSUNNY   80  50  34 W14       29.98F
$$
&&
KEY
WCI = Wind Chill Index
VSB = Visibility
HX  = Heat Index
$$




USA.gov is the U.S. government's official web portal to all federal, state and local government web resources and services.